This demonstration page uses our WeatherBlox Daily Observations layout. Learn more.

Left ArrowRight Arrow

44.8408, -93.29828

Hourly Observations for July 16, 2016

Temp ( °F °C ) Dew Point ( °F °C ) Humidity (%) Winds ( mph kmh ) Pressure ( in mb ) Visibility ( mi km ) Precip ( " mm )
12:53 am 00:53 Clear 67 19.4 55 12.8 66 66 SW 3 6 30.06 1018 10 16 0.00 0.00
1:53 am 01:53 Partly Cloudy 66 18.9 56 13.3 70 70 SW 3 6 30.06 1018 10 16 0.00 0.00
2:53 am 02:53 Mostly Cloudy 65 18.3 56 13.3 73 73 SW 3 6 30.06 1018 10 16 0.00 0.00
3:53 am 03:53 Mostly Clear 64 17.8 56 13.3 75 75 Calm 30.06 1018 10 16 0.00 0.00
4:53 am 04:53 Mostly Clear 63 17.2 56 13.3 78 78 SSW 3 6 30.06 1018 10 16 0.00 0.00
5:53 am 05:53 Mostly Sunny 62 16.7 55 12.8 78 78 Calm 30.07 1018 10 16 0.00 0.00
6:53 am 06:53 Mostly Sunny 63 17.2 55 12.8 76 76 SSW 3 6 30.08 1019 10 16 0.00 0.00
7:53 am 07:53 Sunny 66 18.9 56 13.3 70 70 Calm 30.09 1019 10 16 0.00 0.00
8:53 am 08:53 Sunny 70 21.1 57 13.9 64 64 VRB 3 6 30.08 1019 10 16 0.00 0.00
9:53 am 09:53 Sunny 73 22.8 56 13.3 55 55 SW 6 9 30.07 1018 10 16 0.00 0.00
10:53 am 10:53 Partly Cloudy 77 25 56 13.3 48 48 WSW 10 17 30.06 1018 10 16 0.00 0.00
11:53 am 11:53 Partly Cloudy 77 25 55 12.8 47 47 SSW 10 17 30.05 1018 10 16 0.00 0.00
12:53 pm 12:53 Partly Cloudy 78 25.6 53 11.7 42 42 SSW 12 19 30.04 1017 10 16 0.00 0.00
1:53 pm 13:53 Mostly Cloudy 78 25.6 54 12.2 43 43 S 10 17 30.01 1016 10 16 0.00 0.00
2:53 pm 14:53 Partly Cloudy 80 26.7 56 13.3 44 44 S 13 20 29.99 1016 10 16 0.00 0.00
3:53 pm 15:53 Mostly Cloudy 80 26.7 55 12.8 42 42 S 16 26 29.96 1015 10 16 0.00 0.00
4:53 pm 16:53 Mostly Cloudy 80 26.7 57 13.9 45 45 S 13 20 29.96 1014 10 16 0.00 0.00
5:53 pm 17:53 Mostly Cloudy 79 26.1 57 13.9 47 47 S 15 24 29.93 1014 10 16 0.00 0.00
6:53 pm 18:53 Mostly Cloudy 77 25 58 14.4 52 52 SSE 15 24 29.93 1013 10 16 0.00 0.00
7:53 pm 19:53 Mostly Cloudy 76 24.4 59 15 56 56 SE 9 15 29.93 1013 10 16 0.00 0.00
8:53 pm 20:53 Cloudy 75 23.9 61 16.1 62 62 SE 8 13 29.95 1014 10 16 0.00 0.00
9:53 pm 21:53 Cloudy with Light Rain 74 23.3 63 17.2 69 69 SSE 5 7 29.97 1015 10 16 0.00 0.03
10:08 pm 22:08 Cloudy with Nearby Thunderstorms 73 23 63 17 69 69 Calm 29.94 1014 8 13 0.00 0.00
10:27 pm 22:27 Cloudy with Light Rain 72 22.2 64 17.8 76 76 SSE 5 7 29.97 1015 7 11 0.05 1.27
10:36 pm 22:36 Cloudy with Nearby Thunderstorms 72 22 64 18 78 78 Calm 29.97 1015 6 10 0.00 0.00
10:51 pm 22:51 Cloudy with Light Rain 72 22 63 17 73 73 S 3 6 29.94 1014 5 8 0.08 2.03
10:53 pm 22:53 Cloudy with Light Rain 72 22.2 63 17.2 73 73 S 5 7 29.97 1015 5 8 0.09 2.29
11:23 pm 23:23 Cloudy with Rain 69 20.6 64 17.8 84 84 SSE 13 20 29.94 1014 7 11 0.06 1.52
11:40 pm 23:40 Cloudy with Nearby Thunderstorms 68 20 64 18 88 88 SSE 18 30 29.91 1013 8 13 0.00 0.00
11:53 pm 23:53 Cloudy with Rain 68 20 63 17.2 84 84 SSE 23 37 29.85 1011 5 8 0.11 2.79

Powered by AerisWeather